OBJECT BA, 43806

Orbit data source: Space-Track

You're viewing an uncataloged RSO

Recently launched and/or uncataloged RSOs may have evolving metadata. Metadata may include the following, but is not limited to: Owner, Manufacturer, Bus, Motor, and Mission.

OBJECT BA, 43806 is a satellite in SSO that was launched on Mon, 03 Dec 2018 UTC via an FALCON 9 launch vehicle from the Air Force Western Test Range (AFWTR). Unknown objects in Earth's orbit typically refer to objects detected orbiting the Earth but have not yet been identified or cataloged. These objects could be anything from previously untracked satellites, spent rocket stages, debris from satellite collisions, or even natural meteoroids temporarily captured by Earth's gravity.

Loading next visibility...
Identifier
43806, 2018-099BA
Orbit
SSO
Country
Flag of TBDTBD
Related business
None
Manufacturer
Unknown
Mission
Non-operational Amateur Technology
Bus & Motor
Unknown
Mass
Unknown
Launch date (UTC)
2018-12-03 (8 years ago)
Launch vehicle
FALCON 9
Launch site
Air Force Western Test Range (AFWTR)
Object type
Unknown
Shape & HBR
Box, 0.1 m
Radar Cross Section
0.015 m², Medium (>0.1 m² and < 1m²)

Expand to show TLE details & history
Last TLE update: 20 hours ago

TLE from 20 hours ago
0 OBJECT BA
1 43806U 18099BA  26235.55638477  .00004477  00000-0  23362-3 0  9992
2 43806  97.3942 281.2687 0008968  94.7070 265.5187 15.16400448422644
Epoch: 2026-08-23T13:21Z
TLE epoch observation values (Epoch: 2026-08-23T13:21:11.644Z)
Latitude
-0.00006°
Longitude
109.11945°
Altitude
520.305 km
Speed
7.603 km/s
True Right ascension
18h 45m 04s
True Declination
0° 00' 00"
Sunlit
Object was in full shadow at epoch
Visualization orbit readout
Latitude
Unknown
Longitude
Unknown
Altitude
Unknown
Speed
Unknown
Apparent Right ascension
Unknown
Apparent Declination
Unknown
Sunlit
N/A
Visualization observer readout
Local Sidereal Time
00:48:38
Azimuth
Unknown
Elevation
Unknown
Doppler factor
Unknown
Orbital elements
Apogee altitude
519.881 km
Perigee altitude
507.52 km
Semi-major axis
6,891.837 km
Eccentricity
0.0009
Inclination
97.3942°
RAAN
281.2687°
Arg. of periapsis
94.707°
True anomaly
265.41626°
Mean anomaly
265.5187°
Eccentric anomaly
265.46748°
Mean motion
3.7935 °/min
Orbital period
94.9 mins
BSTAR
0.00023362
Loading maneuver chart data...
Computing Atmospheric mass density...
Loading historical data...
Loading historical data...
Loading historical data...
Loading historical data...
Loading historical data...
Loading historical data...
Loading historical data...

Documentation

Showing up to 5 results
|